Regional Weather Roundup
Issued by NWS

Home | Current Version | Previous Version | Graphics & Text | Print | Product List | Glossary On
Versions: 1 2 3 4 5 6 7 8 9 10 11 12 13 14 15 16 17 18 19 20 21 22 23 24 25 26 27 28 29 30 31 32 33 34 35 36 37 38 39 40 41 42 43 44 45 46 47 48 49 50
000
ASUS43 KMKX 291600
RWRWI

WISCONSIN REGIONAL WEATHER ROUNDUP
NATIONAL WEATHER SERVICE MILWAUKEE/SULLIVAN WI
1100 AM CDT SUN MAY 29 2016

NOTE: "FAIR" INDICATES FEW OR NO CLOUDS BELOW 12,000 FEET WITH NO
SIGNIFICANT WEATHER AND/OR OBSTRUCTIONS TO VISIBILITY.

WIZ001-002-006>008-014>016-023>028-291700-
NORTHWEST WISCONSIN

CITY           SKY/WX    TMP DP  RH WIND       PRES   REMARKS
SUPERIOR ARPT  CLOUDY    64  58  82 W14       29.83S
ASHLAND        CLOUDY    64  59  83 SW8       29.83S
HAYWARD        CLOUDY    62  59  90 CALM      29.87S
SIREN          CLOUDY    64  58  82 W8        29.89R
CUMBERLAND     RAIN      61  57  88 W12       29.90R
RICE LAKE      CLOUDY    64  58  80 W9        29.91R
CHETEK         CLOUDY    65  60  82 NW9       29.90R
LADYSMITH      CLOUDY    64  60  87 W9        29.90S
EAU CLAIRE     NOT AVBL
MENOMONIE      CLOUDY    64  63  99 W12G20    29.91S
NEW RICHMOND   CLOUDY    64  60  89 W13G22    29.93R
OSCEOLA        CLOUDY    64  64  98 W10       29.94S
$$

WIZ003>005-009-010-017-018-291700-
NORTH CENTRAL WISCONSIN

CITY           SKY/WX    TMP DP  RH WIND       PRES   REMARKS
MANITOWISH WTR NOT AVBL
ARBOR VITAE    CLOUDY    63  60  88 W8        29.85R
WOODRUFF       CLOUDY    63  60  88 W8        29.85R
RHINELANDER    CLOUDY    67  58  72 W13       29.86S
EAGLE RIVER      N/A     63  62  95 W10       29.84S
LAND O LAKES   CLOUDY    63  61  93 W6        29.84S
PHILLIPS       CLOUDY    61  58  89 CALM      29.87R
TOMAHAWK       CLOUDY    66  57  74 W7        29.87S
MEDFORD        CLOUDY    62  60  94 W10       29.89S
MERRILL        CLOUDY    66  61  84 W15       29.88R
$$

WIZ029-030-035-036-043>047-291700-
CENTRAL WISCONSIN

CITY           SKY/WX    TMP DP  RH WIND       PRES   REMARKS
WAUSAU         CLOUDY    68  59  73 W10G21    29.86S
MOSINEE        CLOUDY    66  63  88 W12G18    29.90R
MARSHFIELD     CLOUDY    67  58  72 W17G24    29.90R
STEVENS POINT  CLOUDY    65  60  85 W10G22    29.90R
WAUPACA        RAIN      67  65  93 W13G22    29.90R
WAUTOMA        PTSUNNY   69  63  81 W17       29.92R
WISC RAPIDS    CLOUDY    68  57  68 NW16G23   29.92R
CAMP DOUGLAS   NOT AVBL
$$

WIZ011>013-019>022-031-037>040-048>050-291700-
NORTHEAST WISCONSIN

CITY           SKY/WX    TMP DP  RH WIND       PRES   REMARKS
ANTIGO         CLOUDY    63  62  94 W10       29.87S
SHAWANO        CLOUDY    70  61  72 S7        29.86S
OCONTO         CLOUDY    73  63  71 S9        29.84F
STURGEON BAY   NOT AVBL
GREEN BAY      PTSUNNY   68  62  81 SW13      29.87S
MANITOWOC      NOT AVBL
APPLETON       CLOUDY    66  64  94 SW16      29.88S
CLINTONVILLE   RAIN      68  59  73 SW14      29.86S
OSHKOSH        PTSUNNY   70  61  73 VRB7G20   29.90R
$$

WIZ032>034-041-042-053>061-291700-
SOUTHWEST WISCONSIN

CITY           SKY/WX    TMP DP  RH WIND       PRES   REMARKS
LA CROSSE      CLOUDY    70  59  68 W15       29.95R
SPARTA         CLOUDY    68  60  76 W12G18    29.95R
VIROQUA        CLOUDY    68  59  73 W13       29.98R
BOSCOBEL       PTSUNNY   75  61  61 W10       29.98R
PRAIRIE DU CHI MOSUNNY   72  57  58 W15       29.99S
PLATTEVILLE    PTSUNNY   71  62  73 W14G23    30.01R
$$

WIZ056-057-062-063-064-067-068-291700-
SOUTH CENTRAL WISCONSIN

CITY           SKY/WX    TMP DP  RH WIND       PRES   REMARKS
REEDSBURG      PTSUNNY   68  60  74 W14G21    29.95R
BARABOO/DELLS  MOSUNNY   70  57  64 W13G21    29.95R
LONE ROCK      NOT AVBL
MINERAL POINT  PTSUNNY   70  61  73 W16       30.00R
MADISON        PTSUNNY   71  59  65 W10G18    29.96R
MIDDLETON      PTSUNNY   72  62  69 W16       29.97R
WATERTOWN      CLOUDY    67  62  82 SW12G17   29.96R
MONROE         PTSUNNY   70  59  68 W17G25    30.00R
JANESVILLE     PTSUNNY   72  61  68 SW13G21   29.98S
$$

WIZ051-052-058>065-066-070>072-291700-
SOUTHEAST WISCONSIN

CITY           SKY/WX    TMP DP  RH WIND       PRES   REMARKS
MILWAUKEE      PTSUNNY   72  59  63 SW17G26   29.97R
WAUKESHA       CLOUDY    68  59  73 SW15      29.98R
MILWAUKEE/TIMM PTSUNNY   70  57  64 SW16      29.97R
RACINE         CLOUDY    73  59  61 SW14G24   29.99R
BURLINGTON     CLOUDY    67  58  73 W15G23    29.99R
KENOSHA        PTSUNNY   71  60  68 SW17G28   29.99R
FOND DU LAC    PTSUNNY   71  62  73 SW14G23   29.92R
SHEBOYGAN      CLOUDY    71  61  70 SW16G23   29.92R
WEST BEND      CLOUDY    68  59  73 SW9       29.95R
JUNEAU         CLOUDY    67  62  82 SW14      29.96R
$$

LSZ147-162-291700-
LAKE SUPERIOR

STATION/POSITION TIME  TEMP    WIND        PRES    WAVE
                       AIR SEA DIR/SP/G            HT/PER
                 (UTC) (F)     (DEG/KT/KT) (MB)    (FT/S)
W MID LAKE BUOY  1450   41 38  240/  6/  8 1009.0F   0
DEVILS ISLAND    1500   54     220/ 11/ 13 1009.1F
PORT WING        1440   61     220/  7/ 12 1009.8
SAXON HARBOR     1500   63     230/  6/ 10 1009.5
$$

LMZ867-665-643>646-291700-
LAKE MICHIGAN

STATION/POSITION TIME  TEMP    WIND        PRES    WAVE
                       AIR SEA DIR/SP/G            HT/PER
                 (UTC) (F)     (DEG/KT/KT) (MB)    (FT/S)
CHAMBERS ISLAND  1500   69     190/  7/ 15 1010.8
N MID LAKE BUOY  1450   49 46  190/ 14/ 17 1011.4F   2/ 5
NORTHPORT PIER   1500   58     140/  8/ 10 1011.2F
SISTER BAY       1505   72     160/  9/ 10   N/A
ALGOMA LAKESHORE 1517          220/  9/ 11   N/A
KEWAUNEE LAKESHO 1500   52     170/ 12/ 15 1011.3F
SHEBOYGAN LAKESH 1500   61     180/ 16/ 16 1012.9F
PORT WASHINGTON  1500   72     240/  8/ 21 1013.9
S MID LAKE BUOY  1450   54 50  160/ 12/ 14 1014.7S   1/ 3
KENOSHA   LAKESH 1500   73     220/ 14/ 23 1014.6R
$$

TC  - TEMPERATURE IN CELSIUS
VSB - VISIBILITY IN STATUTE MILES
WCI - WIND CHILL INDEX
HX  - HEAT INDEX





USA.gov is the U.S. government's official web portal to all federal, state and local government web resources and services.